Theta_e
318 318 317 319 320 322 321 321 323 323 323 324 325 325 325 325 326 327 326 326 326 325 325 325 325 326 328 328 327 324 323 322 317 317 320 328 327 328 325 324 321 318 315 314
320 320 320 320 321 320 320 321 322 324 325 325 326 325 326 326 326 327 326 325 326 325 324 324 324 326 328 328 328 325 323 320 317 318 326 329 328 327 327 324 320 320 318 316
321 321 322 322 322 321 321 320 321 322 323 325 324 325 326 325 325 325 325 324 324 325 325 324 324 326 328 329 328 326 324 320 318 318 327 328 327 323 321 326 324 322 319 317
321 321 322 322 321 321 322 321 321 321 322 323 325 323 326 326 326 326 325 324 324 323 324 324 324 325 327 328 329 328 327 322 319 324 325 321 320 326 328 327 324 322 319 318
321 322 321 321 322 322 321 322 322 320 320 322 321 324 324 326 326 326 327 325 324 324 323 325 324 325 326 328 330 330 329 328 323 322 327 322 321 325 323 323 322 319 319 320
322 321 322 322 322 322 322 321 322 323 323 324 324 324 324 325 327 327 327 325 325 324 323 324 324 326 326 327 329 330 330 330 328 324 326 326 321 323 325 323 320 318 321 320
320 321 321 322 321 322 321 322 325 323 324 326 324 323 325 327 327 327 329 326 325 325 324 323 324 324 327 328 328 330 330 329 328 329 325 323 323 320 320 318 318 321 320 319
321 321 321 321 322 321 321 322 325 325 327 323 325 325 326 328 327 326 326 326 326 325 325 325 325 325 325 327 328 329 329 328 328 329 327 322 319 319 319 318 319 320 319 318
323 321 321 322 322 322 322 322 322 325 325 325 326 326 327 327 326 326 326 325 326 325 325 325 325 326 325 326 327 328 328 329 329 330 328 324 321 319 320 321 320 320 318 318
325 327 323 322 323 323 323 322 325 326 327 327 325 327 327 328 327 327 325 325 325 326 326 325 326 326 327 325 327 327 328 328 329 329 328 325 323 321 320 319 319 318 318 318
323 325 326 325 323 323 323 322 323 326 326 329 329 327 330 331 329 328 327 325 325 325 324 325 325 327 328 328 328 328 327 328 327 327 327 327 325 323 322 321 320 319 318 317
320 323 327 325 322 322 324 324 323 325 325 327 328 326 327 329 327 328 326 325 325 324 323 324 325 326 327 327 328 327 327 327 326 326 327 327 326 325 323 322 321 319 318 317
314 320 325 323 323 323 325 322 324 327 327 327 327 325 328 326 326 326 326 325 324 323 323 324 325 325 326 326 326 326 326 325 325 326 327 327 326 324 323 322 321 321 319 317
310 314 319 323 321 320 318 319 318 323 329 327 325 325 324 325 328 327 326 326 324 324 323 323 324 324 325 325 325 326 326 326 326 326 325 325 324 323 323 322 322 320 318 316
310 312 312 313 315 315 315 315 317 320 323 326 326 325 326 326 328 324 322 324 324 324 324 323 323 324 324 324 324 324 325 326 325 325 324 324 323 323 322 322 320 318 316 315
307 309 309 310 310 311 312 313 314 316 319 321 323 325 325 325 323 322 322 324 323 323 323 323 324 323 323 323 324 324 324 324 324 324 324 324 323 322 321 319 318 316 314 313
305 305 307 309 308 309 312 312 312 314 315 318 319 320 322 322 321 321 320 321 322 322 323 322 323 322 324 324 324 323 323 325 325 325 324 323 323 321 319 317 315 314 313 312
305 305 305 308 307 309 309 310 311 313 313 315 316 317 317 317 316 315 315 315 315 316 318 318 319 320 320 322 322 323 322 325 326 325 324 323 321 319 317 315 314 313 312 311
306 306 307 308 308 306 306 308 308 310 312 312 313 316 315 314 313 313 313 313 314 314 316 317 318 321 321 321 322 322 326 326 325 324 323 321 319 317 315 314 312 311 309 306
305 306 307 307 307 308 307 306 306 308 310 309 310 314 314 311 313 313 312 313 312 313 314 316 322 322 321 321 322 322 327 325 324 322 319 318 316 314 313 311 309 307 305 307
304 307 306 307 308 308 306 306 306 308 309 310 309 310 310 313 313 312 312 310 310 314 315 316 316 316 318 320 322 326 325 323 321 319 317 315 314 312 311 309 305 307 307 307
305 306 308 307 307 306 305 307 308 308 308 308 310 310 311 312 313 313 313 314 315 315 315 316 316 316 319 321 324 324 322 320 318 316 314 312 311 310 306 307 308 308 307 306
307 306 308 306 306 305 304 305 306 305 307 307 308 309 309 308 311 311 311 313 313 313 314 315 316 317 319 323 322 322 320 317 315 313 311 311 307 307 308 308 307 306 306 306
304 305 306 306 306 305 304 303 303 304 304 306 306 307 309 308 308 309 311 312 312 312 313 314 314 318 321 320 318 318 316 315 313 310 309 308 309 308 307 307 306 306 305 304
304 304 304 306 306 305 304 304 304 303 305 304 307 307 307 307 308 308 309 312 311 311 311 312 316 319 319 317 315 314 312 311 309 309 308 308 308 307 306 306 305 304 304 303
303 304 305 307 305 305 305 304 304 304 304 306 305 305 306 306 307 308 309 310 309 309 311 314 315 317 316 314 313 311 309 308 307 308 307 307 305 305 305 304 304 303 302 302
Wind_Speed
21 13 17 21 21 20 18 22 21 16 25 19 22 18 18 23 22 30 27 26 28 27 26 27 26 27 28 28 28 28 25 24 22 22 17 11 6 8 6 7 7 8 8 12
17 19 20 20 20 22 21 23 23 21 18 21 20 20 18 17 21 22 27 28 24 30 29 31 30 31 32 31 30 31 29 26 25 22 14 12 12 9 10 10 9 12 9 15
20 20 23 20 19 21 23 22 21 23 18 18 17 16 11 15 25 28 26 24 26 28 31 31 35 35 33 35 34 33 32 29 26 24 23 23 20 13 6 4 4 13 15 18
21 20 23 12 15 19 18 16 18 18 17 16 16 14 16 19 21 20 25 30 31 31 29 36 37 40 37 36 35 32 32 32 28 25 25 22 17 7 8 12 10 14 15 16
22 21 20 19 19 18 18 17 19 21 19 19 23 15 14 17 24 24 21 26 26 23 26 31 33 42 41 36 34 32 30 31 28 31 23 21 19 15 15 12 13 15 13 13
23 26 19 18 15 17 17 18 19 15 14 15 20 19 16 15 17 16 21 30 28 26 27 27 32 35 43 40 36 35 32 30 28 29 27 23 18 17 16 14 15 14 7 13
21 25 22 18 14 17 21 12 9 11 13 13 19 19 16 16 13 6 15 27 31 29 27 28 32 37 41 43 40 37 33 31 30 28 29 28 24 21 20 18 16 13 15 14
17 19 24 19 21 20 15 15 11 14 13 17 21 21 18 21 26 6 7 12 13 11 12 11 13 16 24 42 40 36 35 32 30 30 29 27 26 23 21 18 17 18 18 21
20 27 24 24 25 21 23 15 21 19 20 15 16 20 24 9 9 8 11 11 11 5 5 7 12 15 20 29 40 38 34 34 30 26 26 26 24 23 20 17 21 22 23 23
8 15 21 21 19 23 19 16 14 12 17 19 18 19 8 14 14 13 11 13 10 9 5 6 10 12 14 18 37 37 33 32 27 22 23 26 27 25 23 22 24 23 24 24
10 8 17 19 20 16 13 14 16 13 10 14 14 14 14 5 15 7 11 18 19 12 13 10 9 8 12 10 27 31 27 24 20 20 25 25 24 23 22 23 24 24 25 25
12 6 13 23 23 24 19 19 18 9 15 12 14 14 8 12 12 12 16 15 16 13 10 10 8 7 11 14 20 21 23 23 21 24 26 25 23 24 24 25 26 25 26 27
10 6 12 17 19 21 24 19 15 15 14 18 14 12 7 10 5 9 11 10 11 11 7 11 15 10 12 15 17 19 24 24 24 24 24 25 25 24 24 25 25 25 27 28
8 10 14 14 17 15 13 21 16 12 11 13 15 20 23 18 3 6 5 5 18 18 13 11 18 19 17 18 19 23 21 22 21 20 22 22 23 25 22 21 25 28 28 29
13 12 18 22 24 26 25 24 21 17 22 18 15 25 22 19 13 24 26 13 16 12 6 16 12 15 22 21 19 17 19 21 23 24 23 22 24 26 27 27 27 27 29 32
11 9 17 19 21 23 28 26 25 25 16 24 24 25 17 21 32 10 15 9 13 17 17 24 13 20 15 11 14 21 23 23 20 21 21 21 23 24 22 23 26 28 30 31
17 15 16 19 20 20 19 23 26 26 24 16 17 23 18 17 19 6 17 14 17 20 20 25 24 12 7 14 14 13 14 20 23 21 18 20 22 21 21 23 25 28 31 35
22 20 14 15 19 21 16 19 22 21 25 23 24 22 22 22 23 26 15 17 13 20 17 14 22 20 17 15 12 15 14 20 19 19 18 18 19 19 21 24 28 31 32 37
17 19 16 15 17 20 23 20 19 20 23 18 19 22 27 26 21 25 18 16 15 17 18 15 15 20 21 17 18 15 11 15 15 15 15 14 17 20 22 27 28 33 37 38
9 4 10 16 17 19 21 25 34 25 22 22 23 18 17 18 11 11 21 18 18 15 14 14 13 15 18 17 17 18 12 12 11 10 11 13 19 22 27 28 32 33 34 36
12 7 11 11 10 8 20 25 31 18 14 22 26 24 25 11 13 20 24 33 22 18 16 16 17 18 19 17 20 15 11 10 8 9 13 18 21 20 26 29 29 30 30 30
15 11 12 12 15 20 8 17 20 5 15 18 17 18 16 12 18 18 16 12 10 14 16 17 17 20 23 22 16 10 10 8 10 14 16 17 20 24 24 23 23 25 27 28
14 10 11 13 9 12 16 16 14 11 15 16 16 16 15 15 16 17 22 7 14 15 16 17 19 19 19 17 15 13 10 10 13 13 14 21 21 18 16 19 21 24 21 23
18 23 8 14 15 18 29 28 25 24 28 16 19 17 17 18 21 16 14 13 12 13 17 18 22 19 16 15 10 13 12 14 17 14 16 14 14 13 16 16 17 18 22 26
15 18 20 22 22 24 31 30 28 25 12 14 23 21 25 21 21 19 18 14 14 19 17 20 21 22 21 13 11 10 8 12 9 12 10 10 10 13 15 14 17 20 22 25
18 20 15 17 26 24 28 23 24 26 20 16 18 19 22 21 13 22 18 15 15 22 15 15 19 14 19 14 11 8 8 10 8 6 7 8 10 11 13 15 18 20 22 27
Wind_Direction
216 229 230 230 229 245 248 254 242 210 250 237 209 208 209 255 240 186 196 203 203 204 198 191 187 186 185 193 199 183 190 197 194 186 177 185 184 177 199 250 275 321 330 339
234 225 241 239 235 234 241 256 263 265 228 243 204 215 232 221 249 204 193 203 211 203 201 190 186 187 190 194 205 191 194 200 198 192 164 199 176 205 189 243 291 309 318 335
232 238 227 229 250 239 238 235 249 261 271 266 260 227 223 246 233 245 216 213 218 217 199 195 188 187 191 197 209 202 198 205 199 193 189 194 197 215 234 237 332 305 322 323
245 250 258 230 248 254 247 247 262 267 252 256 222 244 237 240 252 234 242 202 211 214 212 195 191 189 191 200 209 212 206 211 200 187 213 209 212 192 190 197 247 271 300 321
254 244 248 241 235 256 252 244 243 233 249 260 253 237 237 227 225 231 222 224 222 225 218 200 192 192 195 196 203 210 212 215 209 196 206 213 201 201 227 237 255 286 311 319
257 265 266 241 250 242 257 246 251 271 232 241 248 250 238 242 252 240 213 203 212 212 221 210 199 196 196 196 197 207 209 214 216 211 201 216 217 202 216 238 263 288 290 275
256 256 253 261 249 249 231 233 241 230 238 234 235 242 246 260 249 247 221 198 202 204 210 206 204 205 198 192 192 201 205 210 216 215 218 216 217 231 239 252 268 273 280 289
255 238 244 233 224 245 201 222 232 232 233 238 231 243 241 239 259 187 58 161 156 166 193 218 231 226 211 192 187 194 202 206 214 214 227 224 227 236 249 257 267 270 276 292
245 257 263 228 232 213 244 214 231 253 263 263 263 244 219 182 116 139 144 136 124 146 222 252 244 230 229 200 188 189 198 199 206 213 226 226 234 240 246 249 259 273 283 291
292 292 262 266 281 216 218 250 243 223 241 256 259 264 276 176 194 173 173 160 183 143 157 229 249 244 235 215 193 187 195 194 201 216 229 227 236 245 253 257 264 271 280 286
318 287 268 277 260 249 211 216 245 275 231 264 248 254 283 295 191 206 189 183 161 160 204 182 222 208 212 204 167 173 178 192 202 223 224 231 237 246 256 264 272 277 284 292
11 309 277 255 262 269 260 237 224 236 254 246 247 242 268 45 101 219 184 172 143 161 175 158 164 179 185 164 162 176 187 194 214 216 222 232 239 242 250 261 270 278 284 291
352 284 282 267 264 273 270 253 251 260 228 241 250 250 229 156 89 106 145 156 172 167 177 157 149 167 171 169 177 187 198 202 206 213 220 231 237 250 258 269 276 283 286 291
328 266 267 262 273 308 308 309 333 330 294 223 244 272 255 264 77 28 32 222 177 180 189 187 168 166 175 175 185 193 192 199 209 213 220 230 246 251 261 261 268 276 285 290
331 301 303 280 278 285 284 284 284 269 275 256 237 221 254 270 85 50 338 306 345 346 215 198 203 178 177 181 186 195 201 206 209 216 221 231 238 247 257 265 275 282 283 286
286 290 301 290 290 283 283 278 275 270 242 276 274 265 244 236 109 74 305 284 335 327 344 325 233 206 217 219 201 211 216 217 216 219 225 233 246 253 260 265 274 282 287 287
275 280 285 280 285 287 270 268 267 271 271 257 264 296 300 306 324 110 162 272 195 234 217 248 272 312 355 223 226 240 249 230 217 224 231 237 245 254 260 271 275 277 277 282
268 262 260 266 277 263 265 272 282 280 273 275 279 276 279 290 300 316 317 310 306 291 288 307 304 320 324 325 302 265 259 235 223 220 226 238 251 258 262 267 269 276 280 281
257 253 255 253 255 267 271 264 261 266 274 275 280 268 271 279 312 292 297 309 306 313 308 297 291 305 315 316 310 314 258 232 223 218 228 247 258 263 261 266 274 276 283 286
228 276 257 253 253 250 252 254 259 272 271 279 280 284 282 291 277 288 309 332 332 318 311 314 303 311 314 303 310 289 259 214 207 218 248 251 251 256 271 274 278 288 290 291
282 224 220 256 254 254 274 276 280 260 263 288 275 267 275 305 294 303 285 283 287 292 298 291 299 300 304 293 297 256 215 204 224 233 236 247 264 272 268 281 291 297 303 304
269 263 264 262 260 267 278 309 263 351 311 299 331 303 306 314 312 319 306 312 310 283 286 293 302 286 285 280 251 201 197 214 222 232 247 265 258 266 281 292 300 299 300 310
273 260 271 256 258 269 254 265 270 296 282 291 289 282 289 284 282 294 311 264 282 290 296 290 302 293 286 235 209 211 205 212 231 253 257 258 277 287 295 287 297 304 313 305
290 287 288 278 269 274 271 266 268 260 248 251 265 261 274 276 255 275 289 286 288 290 278 294 292 293 220 207 188 187 204 230 244 253 266 279 281 290 294 293 307 310 305 309
258 289 289 288 275 270 256 261 263 262 206 255 264 263 253 269 269 252 280 254 272 278 274 291 293 276 202 189 185 186 206 234 240 252 272 282 291 285 301 312 302 314 315 308
259 259 263 266 274 280 280 274 261 263 233 223 242 260 255 266 250 269 265 262 266 271 278 281 281 225 178 174 170 184 211 228 243 257 276 281 295 308 306 312 321 304 310 306